Location: Salillas
(41.9950°N, 0.2228°W)
Time: 20:53:17
(UTC+00:00)

STARLINK-1143 - Pass Details

Date: 29 March 2020
Orbit: 549 x 551 km, 53.0° (Epoch: 31 May)

Event Time Altitude Azimuth Distance (km) Brightness Sun altitude
Rises 19:18:13 0° 239° (WSW) 2,757 7.9 -10.8°
Reaches altitude 10° 19:20:28 10° 242° (WSW) 1,865 7.0 -11.2°
Maximum altitude 19:24:42 67° 325° (NW) 619 4.0 -12.0°
Drops below altitude 10° 19:28:58 10° 49° (NE) 1,875 6.0 -12.7°
Enters shadow 19:30:12 - 51° (NE) 2,362 6.5 -12.9°
